FENGYUN 1C DEB, 30210

Orbit data source: Space-Track

FENGYUN 1C DEB, 30210 is space debris in SSO originally from a launch on Mon, 10 May 1999 UTC launched from the Taiyaun Space Center, China (TSC). Fengyun 1C debris stems from the Chinese weather satellite Fengyun-1C, which was intentionally destroyed by a Chinese anti-satellite missile in 2007. This event dramatically increased the amount of space debris, with thousands of trackable fragments posing hazards to satellites and human spaceflight. The Fengyun 1C debris cloud has become a focal point in discussions about space sustainability and the need for international regulations to prevent the creation of new debris.

Loading next visibility...
Identifier
30210, 1999-025VT
Orbit
SSO
Country
Flag of CNCN / PRC
Related business
Manufacturer
Unknown
Mission
Spacecraft
Bus & Motor
Unknown
Mass
Unknown
Launch date (UTC)
1999-05-10 (27 years ago)
Launch vehicle
Unknown
Launch site
Taiyaun Space Center, China (TSC)
Object type
Payload
Rocket body
Debris
Shape & HBR
Unknown shape, 0.1 m
Radar Cross Section
Small (<0.1 m²)

Expand to show TLE details & history
Last TLE update: 20 hours ago

TLE from 20 hours ago
0 FENGYUN 1C DEB
1 30210U 99025VT  25312.63532193  .00001411  00000-0  84259-3 0  9994
2 30210  99.1944   1.7574 0055880 230.2700 281.8368 14.08154864962776
Epoch: 2025-11-08T15:14Z
TLE epoch observation values (Epoch: 2025-11-08T15:14:51.814Z)
Latitude
28.16561°
Longitude
-90.07505°
Altitude
861.039 km
Speed
7.429 km/s
True Right ascension
12h 26m 48s
True Declination
28° 01' 29"
Sunlit
Object was in daylight at epoch
Visualization orbit readout
Latitude
Unknown
Longitude
Unknown
Altitude
Unknown
Speed
Unknown
Apparent Right ascension
Unknown
Apparent Declination
Unknown
Sunlit
N/A
Visualization observer readout
Local Sidereal Time
07:15:10
Azimuth
Unknown
Elevation
Unknown
Doppler factor
Unknown
Orbital elements
Apogee altitude
903.354 km
Perigee altitude
822.428 km
Semi-major axis
7,241.028 km
Eccentricity
0.00559
Inclination
99.1944°
RAAN
1.7574°
Arg. of periapsis
230.27°
True anomaly
281.20919°
Mean anomaly
281.8368°
Eccentric anomaly
281.52308°
Mean motion
3.52243 °/min
Orbital period
102.2 mins
BSTAR
0.00084259
Loading maneuver chart data...
Computing Atmospheric mass density...

Documentation

Showing up to 5 results
|